[[{"header":{"parameterUnit":"m.s-1","parameterCategory":1,"la1":30.2991,"la2":30.254,"lo1":-89.0895,"lo2":-89.0444,"dy":0.0017,"dx":0.0017,"nx":28,"ny":28,"refTime":"2024-04-14T03:00:00:Z","depth":0,"parameterNumber":2,"parameterNumberName":"U-component_of_WINDS"},"data":[0,0,0,0,0,0,0,0,0,0,0,0,0,0,0,0,0,0,0,0,0,0,0,0,0,0,0,0,0,0,0,0,0,0,0,0,0,0,0,0,0,0,0,0,0,0,0,0,0,0,0,0,0,0,0,0,0,0,-1.4544,-1.4544,0,-1.4555,-1.4555,-1.4555,-1.4515,-1.4514,-1.4512,-1.4511,-1.4523,-1.4525,-1.4526,0,0,0,0,0,0,0,0,0,0,0,0,0,-1.4491,-1.4492,-1.4544,-1.4544,-1.4544,-1.4555,-1.4555,-1.4555,-1.4515,-1.4514,-1.4512,-1.4511,-1.4523,-1.4524,-1.4526,0,0,0,0,0,0,0,0,0,0,0,0,0,-1.4509,-1.4492,-1.4544,-1.4526,-1.4524,-1.4555,-1.4555,-1.4555,-1.4515,-1.4514,-1.4512,-1.451,-1.4522,-1.4524,-1.4526,-1.4575,0,0,-1.4533,-1.4534,0,0,0,0,0,0,0,0,-1.4508,-1.4511,-1.4528,-1.4527,-1.4525,-1.4532,-1.454,-1.4562,-1.4516,-1.4519,-1.4511,-1.4509,-1.4527,-1.4529,-1.4535,-1.4576,-1.4577,-1.4533,-1.4534,-1.4535,-1.4536,0,0,0,0,0,0,0,-1.4507,-1.451,-1.4548,-1.4528,-1.4527,-1.4517,-1.4518,-1.4544,-1.4533,-1.4518,-1.4515,-1.4517,-1.4526,-1.4533,-1.4535,-1.4577,-1.4533,-1.4535,-1.4536,-1.4537,-1.466,-1.4662,0,0,0,0,0,0,-1.4508,-1.4509,-1.4548,-1.4549,-1.4512,-1.452,-1.452,-1.4531,-1.4533,-1.4531,-1.4519,-1.4515,-1.453,-1.4533,-1.4535,-1.4594,-1.4535,-1.4537,-1.4538,-1.4658,-1.466,-1.4663,0,0,0,0,0,0,-1.4507,-1.4511,-1.4547,-1.4528,-1.4532,-1.4523,-1.4535,-1.4533,-1.4539,-1.4533,-1.4531,-1.4528,-1.4529,-1.4532,-1.4566,-1.4593,-1.4538,-1.454,-1.4656,-1.4659,-1.4662,-1.471,0,0,0,0,0,0,-1.4505,-1.4511,-1.4529,-1.4529,-1.4533,-1.4578,-1.4537,-1.4534,-1.4543,-1.4538,-1.4541,-1.4539,-1.4528,-1.4563,-1.4568,-1.4595,-1.4542,-1.4653,-1.4657,-1.4661,-1.4706,-1.4715,-1.4722,0,0,0,0,0,-1.4503,-1.4542,-1.453,-1.4535,-1.4556,-1.4579,-1.4582,-1.4567,-1.4545,-1.4564,-1.456,-1.4539,-1.459,-1.4567,-1.4572,-1.4601,-1.4651,-1.4656,-1.466,-1.4703,-1.4713,-1.4722,0,0,0,0,0,0,-1.4546,-1.4542,-1.4529,-1.4569,-1.4575,-1.4572,-1.4595,-1.4579,-1.4591,-1.4586,-1.4569,-1.457,-1.4607,-1.4607,-1.4582,-1.4649,-1.4617,-1.4623,-1.4647,-1.4657,-1.4664,-1.4664,-1.4544,0,0,0,0,0,-1.456,-1.458,-1.4575,-1.4611,-1.4614,-1.4605,-1.4614,-1.4603,-1.4608,-1.4611,-1.4609,-1.4616,-1.4633,-1.4645,-1.4661,-1.4706,-1.4707,-1.4729,-1.4736,-1.4743,-1.4748,-1.4773,-1.4783,-1.4677,-1.4677,-1.4677,0,0,-1.459,-1.459,-1.4603,-1.4619,-1.4623,-1.4644,-1.4607,-1.463,-1.4646,-1.4614,-1.4646,-1.4646,-1.4652,-1.4692,-1.471,-1.4694,-1.4777,-1.4748,-1.4754,-1.4755,-1.4779,-1.4789,-1.4798,-1.468,-1.468,-1.4679,0,0,-1.4653,-1.4655,-1.4686,-1.469,-1.4696,-1.4689,-1.4697,-1.4697,-1.4696,-1.4727,-1.4705,-1.4723,-1.4753,-1.4759,-1.4766,-1.4834,-1.4816,-1.484,-1.488,-1.4905,-1.4914,-1.4921,-1.4946,-1.4955,-1.4845,-1.4845,-1.4845,0,-1.4689,-1.4719,-1.4703,-1.4729,-1.4737,-1.471,-1.4741,-1.4746,-1.4757,-1.4764,-1.4746,-1.4784,-1.4786,-1.4828,-1.4844,-1.4851,-1.4859,-1.4839,-1.4914,-1.4921,-1.4927,-1.4951,-1.496,-1.4848,-1.4848,-1.4848,-1.4847,0,-1.4763,-1.4785,-1.4809,-1.482,-1.4831,-1.4859,-1.4848,-1.4862,-1.485,-1.4846,-1.4879,-1.4881,-1.4897,-1.4906,-1.4895,-1.4947,-1.4937,-1.4916,-1.4884,-1.4941,-1.4962,-1.4971,-1.4852,-1.4851,-1.485,-1.485,0,0,-1.4853,-1.4856,-1.4865,-1.487,-1.4876,-1.4892,-1.492,-1.4935,-1.4948,-1.4956,-1.4979,-1.5006,-1.4988,-1.4996,-1.4985,-1.5007,-1.5062,-1.4984,-1.4984,-1.4999,-1.5121,-1.5136,-1.5146,-1.505,-1.5052,-1.5053,-1.512,0,-1.4916,-1.4963,-1.495,-1.4997,-1.5017,-1.4993,-1.5017,-1.5023,-1.502,-1.5038,-1.5034,-1.5054,-1.5028,-1.5033,-1.5053,-1.5051,-1.5086,-1.5046,-1.5072,-1.5073,-1.5071,-1.5158,-1.5174,-1.5237,-1.5129,-1.513,-1.5131,0,-1.4995,-1.5008,-1.5057,-1.506,-1.5068,-1.5089,-1.5104,-1.512,-1.5127,-1.5124,-1.5134,-1.5119,-1.5147,-1.5115,-1.5154,-1.5127,-1.5137,-1.5138,-1.514,-1.5142,-1.5105,-1.5162,-1.5256,-1.5266,-1.5144,-1.5143,-1.5142,0,-1.5057,-1.5085,-1.5119,-1.5124,-1.5128,-1.5144,-1.5147,-1.5152,-1.5163,-1.5176,-1.5183,-1.5199,-1.5207,-1.522,-1.5211,-1.5188,-1.5252,-1.5219,-1.525,-1.5251,-1.5265,-1.5264,-1.5362,-1.5271,-1.5271,-1.5271,-1.5271,0,-1.5128,-1.5159,-1.5146,-1.5167,-1.5201,-1.5187,-1.5222,-1.5222,-1.5227,-1.5248,-1.5228,-1.5248,-1.5234,-1.5253,-1.5246,-1.528,-1.5284,-1.5283,-1.528,-1.5284,-1.5285,-1.5291,-1.5286,-1.5273,-1.5273,-1.5272,-1.5272,0,-1.5202,-1.5195,-1.5229,-1.5231,-1.5232,-1.5258,-1.5259,-1.5279,-1.5275,-1.5301,-1.5307,-1.5301,-1.5323,-1.5315,-1.5338,-1.5333,-1.5376,-1.5368,-1.5374,-1.5372,-1.5404,-1.5402,-1.551,-1.5524,-1.5424,-1.5425,-1.5426,0,-1.5248,-1.5272,-1.5276,-1.5288,-1.5293,-1.5313,-1.5324,-1.5311,-1.5324,-1.5335,-1.5353,-1.5373,-1.5388,-1.5424,-1.5422,-1.544,-1.5433,-1.547,-1.5435,-1.5439,-1.5434,-1.5433,-1.5435,-1.5476,-1.5477,-1.5478,-1.5479,0,-1.5331,-1.5327,-1.5343,-1.5359,-1.5373,-1.5385,-1.5395,-1.5407,-1.5395,-1.541,-1.5432,-1.5444,-1.5468,-1.5488,-1.5505,-1.5508,-1.5492,-1.549,-1.5498,-1.5503,-1.5505,-1.5505,-1.5393,-1.5487,-1.5487,-1.5486,-1.5486,-1.5485,-1.5393,-1.5413,-1.542,-1.5439,-1.5446,-1.5456,-1.5475,-1.5474,-1.5492,-1.551,-1.5502,-1.5528,-1.5536,-1.5556,-1.5562,-1.5582,-1.5568,-1.558,-1.5583,-1.5586,-1.5591,-1.5502,-1.5585,-1.5585,-1.5585,-1.5584,-1.5584,0,-1.5475,-1.5478,-1.5497,-1.5512,-1.5528,-1.5511,-1.5522,-1.5537,-1.5559,-1.5568,-1.5584,-1.561,-1.563,-1.563,-1.5649,-1.5666,-1.5659,-1.5671,-1.567,-1.5671,-1.5602,-1.5593,-1.5676,-1.5676,-1.5676,-1.5676,-1.5676,-1.5676,-1.552,-1.5553,-1.555,-1.5587,-1.559,-1.5615,-1.5623,-1.5632,-1.5639,-1.5669,-1.5686,-1.5686,-1.5692,-1.5711,-1.573,-1.5729,-1.5737,-1.5752,-1.5749,-1.5685,-1.5676,-1.5667,-1.5658,-1.5754,-1.5754,-1.5817,-1.5817,-1.5818]},{"header":{"parameterUnit":"m.s-1","parameterCategory":1,"la1":30.2991,"la2":30.254,"lo1":-89.0895,"lo2":-89.0444,"dy":0.0017,"dx":0.0017,"nx":28,"ny":28,"refTime":"2024-04-14T03:00:00:Z","depth":0,"parameterNumber":3,"parameterNumberName":"V-component_of_WINDS"},"data":[0,0,0,0,0,0,0,0,0,0,0,0,0,0,0,0,0,0,0,0,0,0,0,0,0,0,0,0,0,0,0,0,0,0,0,0,0,0,0,0,0,0,0,0,0,0,0,0,0,0,0,0,0,0,0,0,0,0,2.1203,2.1202,0,2.1179,2.1179,2.1179,2.1173,2.1173,2.1173,2.1173,2.1146,2.1145,2.1144,0,0,0,0,0,0,0,0,0,0,0,0,0,2.124,2.1239,2.1203,2.1202,2.1202,2.1179,2.1179,2.1179,2.1173,2.1173,2.1173,2.1173,2.1146,2.1145,2.1144,0,0,0,0,0,0,0,0,0,0,0,0,0,2.1221,2.1239,2.1203,2.1196,2.1196,2.1179,2.1179,2.1179,2.1172,2.1173,2.1173,2.1173,2.1146,2.1145,2.1144,2.1131,0,0,2.114,2.1139,0,0,0,0,0,0,0,0,2.1222,2.1219,2.1198,2.1197,2.1196,2.1179,2.1182,2.1163,2.1172,2.1181,2.1173,2.1173,2.1156,2.1154,2.1149,2.113,2.1129,2.114,2.1139,2.1138,2.1138,0,0,0,0,0,0,0,2.1223,2.122,2.1193,2.1197,2.1196,2.1194,2.1191,2.1178,2.1168,2.118,2.118,2.1177,2.1156,2.1151,2.1149,2.1128,2.114,2.1139,2.1138,2.1137,2.1098,2.1098,0,0,0,0,0,0,2.1226,2.1221,2.1194,2.1193,2.121,2.1193,2.119,2.1184,2.1168,2.1166,2.1177,2.1177,2.1153,2.115,2.1148,2.1132,2.1138,2.1137,2.1136,2.1099,2.1098,2.1098,0,0,0,0,0,0,2.1227,2.1224,2.1195,2.1207,2.1203,2.1192,2.1185,2.1184,2.1178,2.1166,2.1163,2.1174,2.1153,2.115,2.1136,2.1131,2.1137,2.1135,2.1099,2.1098,2.1098,2.1101,0,0,0,0,0,0,2.1228,2.1224,2.1219,2.1207,2.1203,2.1184,2.1185,2.1183,2.1176,2.1176,2.1162,2.116,2.1153,2.1138,2.1135,2.113,2.1134,2.1099,2.1099,2.1098,2.1102,2.1101,2.1101,0,0,0,0,0,2.1229,2.122,2.1219,2.1216,2.1197,2.1184,2.1181,2.1175,2.1176,2.1171,2.1163,2.116,2.1133,2.1136,2.1133,2.1127,2.1099,2.1099,2.1098,2.1102,2.1101,2.1101,0,0,0,0,0,0,2.1231,2.1219,2.1217,2.1204,2.1196,2.1183,2.1177,2.1174,2.1164,2.1164,2.1155,2.1152,2.1139,2.1132,2.1136,2.1115,2.1116,2.1114,2.112,2.1119,2.1119,2.1121,2.1133,0,0,0,0,0,2.1231,2.1222,2.1211,2.1201,2.1197,2.1188,2.1182,2.1177,2.1167,2.1163,2.1154,2.1144,2.1133,2.1126,2.1115,2.1101,2.1097,2.1095,2.1095,2.1095,2.1093,2.1086,2.1085,2.1096,2.1096,2.1096,0,0,2.1228,2.122,2.1215,2.1201,2.1194,2.1184,2.1184,2.1174,2.1167,2.1161,2.1148,2.1141,2.1129,2.1115,2.1109,2.1109,2.109,2.1094,2.1094,2.1093,2.1085,2.1084,2.1083,2.1096,2.1096,2.1096,0,0,2.122,2.1213,2.1204,2.1197,2.1187,2.1181,2.1179,2.1167,2.1162,2.1149,2.1145,2.1136,2.1117,2.1109,2.1102,2.1092,2.1089,2.1089,2.1086,2.1079,2.1078,2.1077,2.1074,2.1072,2.1088,2.1088,2.1088,0,2.1218,2.1205,2.1199,2.119,2.1184,2.118,2.117,2.1163,2.1149,2.1145,2.1146,2.1123,2.1114,2.1099,2.1096,2.1091,2.1088,2.109,2.1079,2.1078,2.1077,2.1073,2.1072,2.1088,2.1088,2.1088,2.1088,0,2.1203,2.1194,2.1188,2.1176,2.1169,2.116,2.1153,2.1146,2.1143,2.1137,2.1124,2.1114,2.1101,2.1097,2.1093,2.1081,2.1082,2.1081,2.1082,2.1076,2.1073,2.1071,2.1088,2.1088,2.1088,2.1088,0,0,2.1194,2.1181,2.1179,2.1174,2.1162,2.1155,2.1145,2.1134,2.1129,2.1119,2.1111,2.1096,2.1095,2.1088,2.1083,2.1076,2.1069,2.1076,2.1076,2.1075,2.1056,2.1057,2.1055,2.1067,2.1067,2.1067,2.1057,0,2.1184,2.1168,2.1164,2.115,2.1141,2.1138,2.113,2.1121,2.1116,2.1107,2.11,2.109,2.109,2.1086,2.1079,2.1071,2.1065,2.1072,2.1059,2.1058,2.1062,2.1053,2.1054,2.1045,2.1055,2.1055,2.1055,0,2.117,2.1162,2.1148,2.1139,2.1135,2.1128,2.1118,2.111,2.11,2.1096,2.1089,2.1085,2.1074,2.1076,2.1061,2.1066,2.106,2.1056,2.1055,2.1054,2.1056,2.1051,2.1042,2.104,2.1053,2.1053,2.1053,0,2.1166,2.1151,2.1141,2.1137,2.1125,2.112,2.1115,2.1106,2.11,2.1091,2.1087,2.1076,2.107,2.1062,2.1055,2.1057,2.104,2.1042,2.1037,2.1037,2.1033,2.1033,2.1023,2.103,2.103,2.103,2.103,0,2.1155,2.1146,2.1139,2.1132,2.1123,2.1117,2.1107,2.1102,2.1094,2.1086,2.1082,2.1075,2.1066,2.1057,2.1052,2.104,2.1038,2.1034,2.1032,2.1034,2.1035,2.103,2.103,2.1029,2.1029,2.1029,2.1029,0,2.1147,2.1142,2.1131,2.1122,2.1119,2.1112,2.1104,2.1097,2.1092,2.1082,2.108,2.1071,2.1061,2.1053,2.1039,2.1035,2.1023,2.1022,2.1027,2.1026,2.1021,2.1022,2.1007,2.1005,2.1014,2.1014,2.1014,0,2.1141,2.1134,2.1125,2.112,2.1115,2.1107,2.1101,2.1096,2.109,2.1079,2.1074,2.1064,2.1055,2.1039,2.103,2.102,2.1018,2.1014,2.1016,2.1019,2.1018,2.1019,2.1018,2.1013,2.1013,2.1013,2.1013,0,2.113,2.1128,2.112,2.1112,2.1106,2.1099,2.1091,2.1087,2.108,2.1074,2.1064,2.1057,2.1044,2.1034,2.1023,2.1017,2.1013,2.1013,2.1011,2.1012,2.1016,2.1014,2.1026,2.1013,2.1013,2.1013,2.1013,2.1013,2.1122,2.1117,2.111,2.1101,2.1096,2.109,2.1083,2.1078,2.107,2.106,2.1057,2.1046,2.1037,2.1023,2.1016,2.1008,2.1008,2.1005,2.1005,2.1004,2.1004,2.1017,2.1006,2.1006,2.1006,2.1006,2.1006,0,2.1111,2.1107,2.1099,2.109,2.1084,2.1083,2.1075,2.107,2.1061,2.1054,2.1046,2.1035,2.1025,2.1017,2.1007,2.1001,2.1,2.0999,2.0999,2.0998,2.1005,2.1007,2.1,2.1,2.1,2.1,2.1,2.1,2.1104,2.1095,2.1092,2.108,2.1076,2.1067,2.1062,2.1056,2.1051,2.1039,2.1031,2.1026,2.1018,2.1008,2.0999,2.0996,2.0993,2.0992,2.099,2.0996,2.0997,2.0998,2.1,2.0992,2.0992,2.0983,2.0983,2.0983]}]]